TimePDT,TemperatureF,Dew PointF,Humidity,Sea Level PressureIn,VisibilityMPH,Wind Direction,Wind SpeedMPH,Gust SpeedMPH,PrecipitationIn,Events,Conditions,WindDirDegrees,DateUTC
12:53 AM,52.0,23.0,32,29.98,10.0,NNW,12.7,-,N/A,,Clear,330,2013-04-25 07:53:00
1:53 AM,53.1,23.0,31,29.95,10.0,NNW,16.1,23.0,N/A,,Clear,330,2013-04-25 08:53:00
2:53 AM,52.0,24.1,34,29.95,10.0,NW,16.1,25.3,N/A,,Clear,310,2013-04-25 09:53:00
3:53 AM,51.1,25.0,36,29.95,10.0,NW,20.7,-,N/A,,Clear,310,2013-04-25 10:53:00
4:53 AM,51.1,26.1,38,29.95,10.0,NW,16.1,-,N/A,,Clear,320,2013-04-25 11:53:00
5:53 AM,51.1,27.0,39,29.95,10.0,NNW,11.5,-,N/A,,Clear,330,2013-04-25 12:53:00
6:53 AM,52.0,28.9,41,29.96,10.0,NNW,15.0,-,N/A,,Clear,330,2013-04-25 13:53:00
7:53 AM,57.0,30.0,36,29.96,10.0,NW,23.0,27.6,N/A,,Clear,310,2013-04-25 14:53:00
8:53 AM,60.1,30.9,33,29.96,10.0,NW,21.9,29.9,N/A,,Clear,310,2013-04-25 15:53:00
9:53 AM,64.0,33.1,31,29.96,10.0,NW,20.7,27.6,N/A,,Clear,310,2013-04-25 16:53:00
10:53 AM,68.0,36.0,31,29.96,10.0,WNW,21.9,27.6,N/A,,Clear,300,2013-04-25 17:53:00
11:53 AM,70.0,36.0,29,29.96,10.0,WNW,20.7,27.6,N/A,,Clear,300,2013-04-25 18:53:00
12:53 PM,73.0,37.9,28,29.96,10.0,NW,25.3,31.1,N/A,,Clear,310,2013-04-25 19:53:00
1:53 PM,72.0,37.0,28,29.96,10.0,WNW,23.0,33.4,N/A,,Clear,290,2013-04-25 20:53:00
2:53 PM,73.9,37.0,26,29.96,10.0,WNW,28.8,34.5,N/A,,Clear,300,2013-04-25 21:53:00
3:53 PM,73.0,37.0,27,29.96,10.0,WNW,28.8,36.8,N/A,,Clear,290,2013-04-25 22:53:00
4:53 PM,71.1,36.0,28,29.97,10.0,WNW,24.2,36.8,N/A,,Clear,300,2013-04-25 23:53:00
5:53 PM,70.0,36.0,29,29.99,10.0,WNW,26.5,36.8,N/A,,Clear,290,2013-04-26 00:53:00
6:53 PM,68.0,36.0,31,30.01,10.0,WNW,20.7,28.8,N/A,,Clear,290,2013-04-26 01:53:00
7:53 PM,64.0,36.0,35,30.01,10.0,NW,13.8,27.6,N/A,,Clear,310,2013-04-26 02:53:00
8:53 PM,60.1,36.0,41,30.04,10.0,NW,10.4,-,N/A,,Clear,310,2013-04-26 03:53:00
9:53 PM,59.0,37.0,44,30.05,10.0,WNW,16.1,-,N/A,,Clear,300,2013-04-26 04:53:00
10:53 PM,57.9,36.0,44,30.05,10.0,NW,18.4,-,N/A,,Clear,320,2013-04-26 05:53:00